CZ-4 DEB

Satellite information

Favourite Embed

Satellite Type and Status

DEBRISIN ORBIT

Key statistics

Satellite CZ-4 DEB at a glance.

Uptime

12666

Days in orbit

Revolutions

≈ 14.3

Per day

Orbit

SSO

Sun Synchronous Orbit

Inclination

98.5

Latest

Satellite identification and parameters

Extended collection of information and parameters for CZ-4 DEB.

Object identification

Identified? True

Debris? True

Object name: CZ-4 DEB

International designator: 1990-081BE

Object number (NORAD): 20894

Object ID (CCSDS): 20894

Country: PEOPLES REPUBLIC OF CHINA (PRC)

Current information (Y/N): Y

RCS size: SMALL

Orbital parameters

Period: 100.467 minutes

Inclination: 98.536 deg

SMA: 7158.845 km

Apoapsis: 795.207 km

Periapsis: 766.214 km

RAAN: 126.3065 deg

Eccentricy: 0.002025

Argument of periapsis: 68.5613 deg

Mean anomaly: 52.5733 deg

Mean motion: 14.33303937 rev/day

Mean motion (dot): 0.00002293 rev/day2

B* drag term: 0.00084648 1/REarth

Two-line elements (TLE)

Creation date: May 8, 2025, 3:01 a.m.

Reference frame: TEME

Reference center: EARTH

Epoch: May 7, 2025, 12:40 p.m. UTC

TLE line 0: 0 CZ-4 DEB

TLE line 1: 1 20894U 90081BE 25127.52842655 .00002293 00000-0 84648-3 0 9994

TLE line 2: 2 20894 98.5360 126.3065 0020250 68.5613 52.5733 14.33303937792220

Live tracking on map

Real-time ground track for satellite CZ-4 DEB.

In-orbit conjunctions

A list of the most updated potential collisions computed for object CZ-4 DEB.

Target Orbit TCA Probability of collision Miss distance Type
SL-14 DEB LEO 2025-03-02 17:16:15 0.0001599289 141.0 (m) DEBRIS
CZ-6A DEB LEO 2025-01-15 17:21:07 0.0001180671 775.0 (m) DEBRIS
COSMOS 1275 DEB LEO 2024-11-12 05:44:08 0.0001387332 825.0 (m) DEBRIS

Associated space launch

Chinese polar orbiting meteorological satellite

CZ-4 DEB was lifted into orbit during the mission ‘Long March 4A | Feng Yun 1B’, on board a Long March 4A space rocket.

The launch took place on Sept. 3, 1990, 12:53 a.m. from Launch Complex 7.

For more information about the launch, click the button.

Launch to space Long March 4A | Feng Yun 1B
Long March 4A | Feng Yun 1B

Agency: N/A

Status: Launch Successful

Launch date: Sept. 3, 1990, 12:53 a.m. UTC

Rocket: Long March 4A

Launch pad: Launch Complex 7

Location: Taiyuan Satellite Launch Center, People's Republic of China

...

Latest news about this satellite

There are no fresh news available about this satellite. Check back as we update our databases every day.


Newsletter sign-up

Weekly statistics, charts and insights to help you stay on top of the space industry.